Terug naar catalogus

SIRIUS 3

ActiefCommunicatieMEO
NORAD 26626·PAYLOAD·🇺🇸 United States

Gelanceerd Nov 30, 2000 vanaf Baikonur Cosmodrome

Loading…

Volgende Passages (komende 24 uur)

TLE

VersSource: Space-Track

Epoch: Sep 12, 2026, 11:01 UTC

1 26626U 00077A   26255.45957547 -.00000001  00000-0  00000-0 0  9994
2 26626  59.6164 274.9224 0014171 271.0949  88.7822  1.58823501115882

Volg SIRIUS 3 in realtime met AllMySat

Download on the App Store